Fort McClellan, AL (36205)

8:56 PM CDT on May 26, 2015 (GMT -0500)
saks | | Change Station
CLOSE
Current Station
Personal Weather Station
Location: Anniston, AL
Elevation: 692 ft
Nearby Weather Stations

Elev 692 ft 33.72 °N, 85.86 °W | Updated 9 minutes ago

Clear
Clear
67.3 °F
Feels Like 67.3 °F
N
0.0
Wind Variable Wind from East

Today
High -- | Low -- °F
--% Chance of Precip.
Yesterday
High -- | Low -- °F
Precip. -- in
5:36 AM 7:44 PM
Waxing Gibbous, 63% visible
Pressure 30.14 in
Visibility 10.0 miles
Clouds Clear
Dew Point 66 °F
Humidity 94%
Rainfall 0.00 in
Snow Depth Not available.
UV 0 out of 12
Pollen .70 out of 12
Air Quality Not available.
Flu Activity Sporadic
METAR KANB 270053Z AUTO 36003KT 10SM CLR 22/18 A3016 RMK AO2 SLP207 T02170183

More Conditions Fewer Conditions

Pressure 30.14 in
Visibility 10.0 miles
Clouds Clear
Dew Point 66 °F
Humidity 94%
Rainfall 0.00 in
Snow Depth Not available.
UV 0 out of 12
Pollen .70 out of 12
Air Quality Not available.
Flu Activity Sporadic
METAR KANB 270053Z AUTO 36003KT 10SM CLR 22/18 A3016 RMK AO2 SLP207 T02170183

More Conditions Fewer Conditions

10-Day Weather Forecast

Almanac

Astronomy

May. 26, 2015 Rise Set
Actual Time
Civil Twilight
Nautical Twilight
Astronomical Twilight
Moon
Length of Visible Light
Length of Day
Tomorrow will be .
, % of the Moon is Illuminated

Today's Extremes

State Highs State Lows

Community

WunderPhotos

Upload Photos

1,824,549 photos uploaded!

WunderBlogs® & News

Nearby

Air Quality

  Air Quality AQ Index Pollutant
Not available.

Snow Depth

Station Depth Elevation

Earthquake Activity

City Distance Mag. Time & Date
Minimum magnitude displayed is 2.5.

Coastal Water Temperatures

Place Temperature

Stations

Nearby Weather Stations

Station Location Temp. Windchill Dew Point Humidity Wind Precip. Elev Updated Type